| time (UTC) | temp F | wind direction | speed MPH | gust MPH | rain 1hr in | rain 24hr in | rain mn in | humidity % | barometer mb |
| 20260507231802 | 66 | 201 | 0.0 | 1.0 | 0.00 | 0.00 | 0.00 | 49 | 1010.9 |
| 20260507231303 | 66 | 163 | 0.0 | 0.0 | 0.00 | 0.00 | 0.00 | 47 | 1010.9 |
| 20260507230302 | 65 | 225 | 0.0 | 1.0 | 0.00 | 0.00 | 0.00 | 50 | 1011.1 |
| 20260507224802 | 66 | 225 | 0.0 | 0.0 | 0.00 | 0.00 | 0.00 | 48 | 1011.3 |
| 20260507224302 | 66 | 216 | 0.0 | 0.0 | 0.00 | 0.00 | 0.00 | 46 | 1011.1 |
| 20260507223802 | 66 | 136 | 0.0 | 0.0 | 0.00 | 0.00 | 0.00 | 45 | 1011.3 |
| 20260507223303 | 66 | 198 | 0.0 | 5.0 | 0.00 | 0.00 | 0.00 | 46 | 1011.3 |
| 20260507221803 | 67 | 204 | 0.0 | 0.0 | 0.00 | 0.00 | 0.00 | 47 | 1011.4 |
| 20260507221303 | 66 | 194 | 0.0 | 0.0 | 0.00 | 0.00 | 0.00 | 47 | 1011.5 |
| 20260507220303 | 67 | 165 | 0.0 | 5.0 | 0.00 | 0.00 | 0.00 | 46 | 1011.4 |
| 20260507214802 | 66 | 180 | 0.0 | 0.0 | 0.00 | 0.00 | 0.00 | 47 | 1011.5 |
| 20260507213803 | 66 | 217 | 0.0 | 2.0 | 0.00 | 0.00 | 0.00 | 45 | 1011.5 |
| 20260507213303 | 66 | 212 | 0.0 | 2.0 | 0.00 | 0.00 | 0.00 | 46 | 1011.5 |
| 20260507211802 | 67 | 205 | 0.0 | 0.0 | 0.00 | 0.00 | 0.00 | 47 | 1011.6 |
| 20260507211303 | 67 | 194 | 0.0 | 0.0 | 0.00 | 0.00 | 0.00 | 48 | 1011.8 |
| 20260507210802 | 67 | 182 | 1.0 | 3.0 | 0.00 | 0.00 | 0.00 | 46 | 1011.8 |
| 20260507210303 | 66 | 204 | 0.0 | 2.0 | 0.00 | 0.00 | 0.00 | 46 | 1011.8 |
| 20260507204802 | 66 | 218 | 0.0 | 0.0 | 0.00 | 0.00 | 0.00 | 47 | 1012.2 |
| 20260507204302 | 66 | 211 | 0.0 | 3.0 | 0.00 | 0.00 | 0.00 | 46 | 1012.2 |
| 20260507203303 | 66 | 207 | 0.0 | 3.0 | 0.00 | 0.00 | 0.00 | 46 | 1012.4 |
| 20260507201302 | 65 | 202 | 0.0 | 0.0 | 0.00 | 0.00 | 0.00 | 50 | 1012.8 |
| 20260507200803 | 65 | 161 | 0.0 | 2.0 | 0.00 | 0.00 | 0.00 | 48 | 1012.8 |
| 20260507200303 | 65 | 209 | 0.0 | 0.0 | 0.00 | 0.00 | 0.00 | 48 | 1012.9 |
| 20260507194803 | 65 | 194 | 0.0 | 0.0 | 0.00 | 0.00 | 0.00 | 46 | 1013.2 |
| 20260507193804 | 66 | 209 | 0.0 | 0.0 | 0.00 | 0.00 | 0.00 | 46 | 1013.2 |
| 20260507193303 | 66 | 170 | 0.0 | 3.0 | 0.00 | 0.00 | 0.00 | 47 | 1013.3 |
| 20260507191802 | 66 | 186 | 0.0 | 3.0 | 0.00 | 0.00 | 0.00 | 44 | 1013.4 |
| 20260507191303 | 67 | 174 | 0.0 | 2.0 | 0.00 | 0.00 | 0.00 | 47 | 1013.4 |
| 20260507190803 | 67 | 169 | 0.0 | 3.0 | 0.00 | 0.00 | 0.00 | 45 | 1013.3 |
| 20260507190303 | 66 | 186 | 0.0 | 2.0 | 0.00 | 0.00 | 0.00 | 48 | 1013.4 |
| 20260507184302 | 66 | 213 | 0.0 | 0.0 | 0.00 | 0.00 | 0.00 | 45 | 1013.5 |
| 20260507183302 | 66 | 220 | 0.0 | 2.0 | 0.00 | 0.00 | 0.00 | 43 | 1013.7 |
| 20260507181303 | 67 | 173 | 0.0 | 3.0 | 0.00 | 0.00 | 0.00 | 42 | 1013.9 |
| 20260507180803 | 67 | 219 | 1.0 | 3.0 | 0.00 | 0.00 | 0.00 | 46 | 1013.9 |
| 20260507180303 | 67 | 216 | 0.0 | 6.0 | 0.00 | 0.00 | 0.00 | 43 | 1014.0 |
| 20260507174802 | 68 | 213 | 0.0 | 0.0 | 0.00 | 0.00 | 0.00 | 42 | 1014.2 |
| 20260507174302 | 66 | 227 | 0.0 | 0.0 | 0.00 | 0.00 | 0.00 | 46 | 1014.3 |
| 20260507173803 | 67 | 315 | 0.0 | 3.0 | 0.00 | 0.00 | 0.00 | 41 | 1014.4 |
| 20260507173302 | 67 | 228 | 0.0 | 1.0 | 0.00 | 0.00 | 0.00 | 43 | 1014.4 |
| 20260507171803 | 66 | 222 | 1.0 | 5.0 | 0.00 | 0.00 | 0.00 | 44 | 1014.6 |
| 20260507171303 | 66 | 258 | 0.0 | 2.0 | 0.00 | 0.00 | 0.00 | 47 | 1014.7 |
| 20260507170803 | 66 | 217 | 0.0 | 3.0 | 0.00 | 0.00 | 0.00 | 45 | 1014.8 |
| 20260507170303 | 65 | 215 | 0.0 | 3.0 | 0.00 | 0.00 | 0.00 | 45 | 1014.8 |
| 20260507164803 | 65 | 187 | 0.0 | 0.0 | 0.00 | 0.00 | 0.00 | 42 | 1015.1 |
| 20260507164303 | 64 | 204 | 0.0 | 1.0 | 0.00 | 0.00 | 0.00 | 46 | 1015.2 |
| 20260507163803 | 64 | 196 | 0.0 | 0.0 | 0.00 | 0.00 | 0.00 | 49 | 1015.1 |
| 20260507163302 | 64 | 231 | 0.0 | 1.0 | 0.00 | 0.00 | 0.00 | 45 | 1015.2 |
| 20260507161303 | 62 | 194 | 0.0 | 2.0 | 0.00 | 0.00 | 0.00 | 51 | 1015.4 |
| 20260507160803 | 62 | 197 | 0.0 | 5.0 | 0.00 | 0.00 | 0.00 | 50 | 1015.4 |
| 20260507160302 | 61 | 184 | 0.0 | 1.0 | 0.00 | 0.00 | 0.00 | 51 | 1015.5 |
| 20260507154803 | 61 | 181 | 0.0 | 3.0 | 0.00 | 0.00 | 0.00 | 51 | 1015.6 |
| 20260507154303 | 60 | 169 | 0.0 | 3.0 | 0.00 | 0.00 | 0.00 | 56 | 1015.6 |
| 20260507153803 | 60 | 224 | 0.0 | 3.0 | 0.00 | 0.00 | 0.00 | 53 | 1015.5 |
| 20260507153303 | 60 | 233 | 0.0 | 1.0 | 0.00 | 0.00 | 0.00 | 49 | 1015.6 |
| 20260507151803 | 59 | 178 | 0.0 | 3.0 | 0.00 | 0.00 | 0.00 | 56 | 1015.8 |
| 20260507150802 | 58 | 202 | 0.0 | 0.0 | 0.00 | 0.00 | 0.00 | 56 | 1015.8 |
| 20260507144803 | 56 | 177 | 0.0 | 3.0 | 0.00 | 0.00 | 0.00 | 61 | 1016.0 |
| 20260507144302 | 56 | 179 | 0.0 | 2.0 | 0.00 | 0.00 | 0.00 | 61 | 1015.9 |
| 20260507143802 | 56 | 156 | 0.0 | 3.0 | 0.00 | 0.00 | 0.00 | 61 | 1015.9 |
| 20260507143302 | 55 | 137 | 0.0 | 2.0 | 0.00 | 0.00 | 0.00 | 65 | 1015.9 |
| 20260507141803 | 54 | 153 | 0.0 | 5.0 | 0.00 | 0.00 | 0.00 | 67 | 1016.1 |
| 20260507141302 | 53 | 146 | 0.0 | 1.0 | 0.00 | 0.00 | 0.00 | 70 | 1016.1 |
| 20260507140303 | 52 | 151 | 0.0 | 0.0 | 0.00 | 0.00 | 0.00 | 74 | 1016.3 |
| 20260507134803 | 50 | 151 | 0.0 | 0.0 | 0.00 | 0.00 | 0.00 | 75 | 1016.4 |
| 20260507134303 | 50 | 148 | 0.0 | 0.0 | 0.00 | 0.00 | 0.00 | 77 | 1016.5 |
| 20260507133803 | 49 | 148 | 0.0 | 0.0 | 0.00 | 0.00 | 0.00 | 80 | 1016.5 |
| 20260507133303 | 48 | 8 | 0.0 | 1.0 | 0.00 | 0.00 | 0.00 | 81 | 1016.6 |
| 20260507131303 | 45 | 355 | 0.0 | 0.0 | 0.00 | 0.00 | 0.00 | 89 | 1016.8 |
| 20260507130803 | 44 | 355 | 0.0 | 0.0 | 0.00 | 0.00 | 0.00 | 90 | 1016.8 |
| 20260507130303 | 44 | 355 | 0.0 | 0.0 | 0.00 | 0.00 | 0.00 | 91 | 1016.9 |
| 20260507124803 | 42 | 355 | 0.0 | 0.0 | 0.00 | 0.00 | 0.00 | 93 | 1016.8 |
| 20260507123803 | 41 | 355 | 0.0 | 0.0 | 0.00 | 0.00 | 0.00 | 93 | 1016.6 |
| 20260507123303 | 41 | 355 | 0.0 | 0.0 | 0.00 | 0.00 | 0.00 | 93 | 1016.6 |
| 20260507121303 | 40 | 355 | 0.0 | 0.0 | 0.00 | 0.00 | 0.00 | 93 | 1016.4 |
| 20260507120803 | 40 | 355 | 0.0 | 0.0 | 0.00 | 0.00 | 0.00 | 93 | 1016.3 |
| 20260507120302 | 39 | 355 | 0.0 | 0.0 | 0.00 | 0.00 | 0.00 | 92 | 1016.3 |
| 20260507114803 | 39 | 355 | 0.0 | 0.0 | 0.00 | 0.00 | 0.00 | 93 | 1016.2 |
| 20260507114303 | 39 | 355 | 0.0 | 0.0 | 0.00 | 0.00 | 0.00 | 93 | 1016.2 |
| 20260507113803 | 39 | 355 | 0.0 | 0.0 | 0.00 | 0.00 | 0.00 | 93 | 1016.1 |
| 20260507113302 | 39 | 355 | 0.0 | 0.0 | 0.00 | 0.00 | 0.00 | 92 | 1016.0 |
| 20260507111803 | 39 | 355 | 0.0 | 0.0 | 0.00 | 0.00 | 0.00 | 92 | 1016.0 |
| 20260507111303 | 39 | 355 | 0.0 | 0.0 | 0.00 | 0.00 | 0.00 | 92 | 1015.9 |
| 20260507110803 | 39 | 355 | 0.0 | 0.0 | 0.00 | 0.00 | 0.00 | 91 | 1015.9 |
| 20260507110303 | 39 | 355 | 0.0 | 0.0 | 0.00 | 0.00 | 0.00 | 91 | 1015.9 |
| 20260507104803 | 39 | 355 | 0.0 | 0.0 | 0.00 | 0.01 | 0.00 | 92 | 1015.8 |
| 20260507103803 | 40 | 355 | 0.0 | 0.0 | 0.00 | 0.01 | 0.00 | 92 | 1015.8 |
| 20260507103303 | 40 | 355 | 0.0 | 0.0 | 0.00 | 0.01 | 0.00 | 92 | 1015.8 |
| 20260507101303 | 40 | 355 | 0.0 | 0.0 | 0.00 | 0.01 | 0.00 | 91 | 1015.8 |
| 20260507100803 | 40 | 355 | 0.0 | 0.0 | 0.00 | 0.01 | 0.00 | 91 | 1015.8 |
| 20260507100303 | 40 | 355 | 0.0 | 0.0 | 0.00 | 0.01 | 0.00 | 91 | 1015.8 |
| 20260507094803 | 40 | 355 | 0.0 | 0.0 | 0.00 | 0.01 | 0.00 | 91 | 1015.8 |
| 20260507094302 | 40 | 355 | 0.0 | 0.0 | 0.00 | 0.01 | 0.00 | 91 | 1015.7 |
| 20260507093803 | 40 | 355 | 0.0 | 0.0 | 0.00 | 0.01 | 0.00 | 91 | 1015.7 |
| 20260507093305 | 40 | 355 | 0.0 | 0.0 | 0.00 | 0.01 | 0.00 | 92 | 1015.8 |
| 20260507091803 | 40 | 355 | 0.0 | 0.0 | 0.00 | 0.01 | 0.00 | 91 | 1015.8 |
| 20260507090303 | 41 | 355 | 0.0 | 0.0 | 0.00 | 0.01 | 0.00 | 92 | 1015.7 |
| 20260507084803 | 41 | 355 | 0.0 | 0.0 | 0.00 | 0.01 | 0.00 | 92 | 1015.7 |
| 20260507084303 | 41 | 355 | 0.0 | 0.0 | 0.00 | 0.01 | 0.00 | 92 | 1015.6 |
| 20260507083803 | 41 | 355 | 0.0 | 0.0 | 0.00 | 0.02 | 0.00 | 92 | 1015.7 |
| 20260507083303 | 40 | 355 | 0.0 | 0.0 | 0.00 | 0.02 | 0.00 | 92 | 1015.8 |
| 20260507081803 | 40 | 355 | 0.0 | 0.0 | 0.00 | 0.02 | 0.00 | 92 | 1016.0 |
| 20260507080803 | 40 | 355 | 0.0 | 0.0 | 0.00 | 0.02 | 0.00 | 92 | 1016.0 |
| 20260507080303 | 40 | 355 | 0.0 | 0.0 | 0.00 | 0.02 | 0.00 | 91 | 1016.0 |
| 20260507074803 | 40 | 355 | 0.0 | 0.0 | 0.00 | 0.02 | 0.00 | 90 | 1016.0 |
| 20260507074303 | 40 | 355 | 0.0 | 0.0 | 0.00 | 0.02 | 0.00 | 91 | 1016.1 |
| 20260507073803 | 40 | 355 | 0.0 | 0.0 | 0.00 | 0.02 | 0.00 | 91 | 1016.1 |
| 20260507071303 | 40 | 355 | 0.0 | 0.0 | 0.00 | 0.03 | 0.00 | 91 | 1016.3 |
| 20260507070803 | 40 | 355 | 0.0 | 0.0 | 0.00 | 0.03 | 0.00 | 91 | 1016.4 |
| 20260507070303 | 39 | 355 | 0.0 | 0.0 | 0.00 | 0.03 | 0.00 | 91 | 1016.3 |
| 20260507064803 | 40 | 355 | 0.0 | 0.0 | 0.00 | 0.03 | 0.00 | 90 | 1016.4 |
| 20260507064304 | 40 | 355 | 0.0 | 0.0 | 0.00 | 0.03 | 0.00 | 91 | 1016.4 |
| 20260507063803 | 40 | 355 | 0.0 | 0.0 | 0.00 | 0.03 | 0.00 | 90 | 1016.4 |
| 20260507063303 | 40 | 355 | 0.0 | 0.0 | 0.00 | 0.03 | 0.00 | 90 | 1016.2 |
| 20260507061803 | 40 | 355 | 0.0 | 0.0 | 0.00 | 0.03 | 0.00 | 89 | 1016.3 |
| 20260507061303 | 40 | 355 | 0.0 | 0.0 | 0.00 | 0.03 | 0.00 | 90 | 1016.3 |
| 20260507060803 | 40 | 355 | 0.0 | 0.0 | 0.00 | 0.03 | 0.00 | 90 | 1016.3 |
| 20260507060303 | 40 | 355 | 0.0 | 0.0 | 0.00 | 0.03 | 0.00 | 90 | 1016.4 |
| 20260507054803 | 40 | 355 | 0.0 | 0.0 | 0.00 | 0.03 | 0.00 | 89 | 1016.7 |
| 20260507054303 | 40 | 355 | 0.0 | 0.0 | 0.00 | 0.03 | 0.00 | 89 | 1016.6 |
| 20260507053803 | 40 | 355 | 0.0 | 0.0 | 0.00 | 0.03 | 0.00 | 89 | 1016.6 |
| 20260507053303 | 41 | 355 | 0.0 | 0.0 | 0.00 | 0.03 | 0.00 | 89 | 1016.6 |
| 20260507050803 | 41 | 355 | 0.0 | 0.0 | 0.00 | 0.03 | 0.00 | 89 | 1016.4 |
| 20260507050304 | 41 | 355 | 0.0 | 0.0 | 0.00 | 0.03 | 0.00 | 88 | 1016.4 |
| 20260507044803 | 42 | 355 | 0.0 | 0.0 | 0.00 | 0.03 | 0.03 | 88 | 1016.5 |
| 20260507044303 | 42 | 355 | 0.0 | 0.0 | 0.00 | 0.03 | 0.03 | 87 | 1016.4 |
| 20260507043803 | 42 | 355 | 0.0 | 0.0 | 0.00 | 0.03 | 0.03 | 87 | 1016.4 |
| 20260507043303 | 42 | 355 | 0.0 | 0.0 | 0.00 | 0.03 | 0.03 | 88 | 1016.3 |
| 20260507041803 | 43 | 355 | 0.0 | 0.0 | 0.00 | 0.03 | 0.03 | 86 | 1016.3 |
| 20260507041303 | 43 | 355 | 0.0 | 0.0 | 0.00 | 0.03 | 0.03 | 87 | 1016.3 |
| 20260507040803 | 43 | 355 | 0.0 | 0.0 | 0.00 | 0.03 | 0.03 | 86 | 1016.3 |
| 20260507040303 | 43 | 355 | 0.0 | 0.0 | 0.00 | 0.03 | 0.03 | 86 | 1016.3 |
| 20260507034803 | 44 | 355 | 0.0 | 0.0 | 0.00 | 0.03 | 0.03 | 86 | 1016.3 |
| 20260507033803 | 44 | 355 | 0.0 | 0.0 | 0.00 | 0.03 | 0.03 | 86 | 1016.4 |
| 20260507033303 | 44 | 355 | 0.0 | 0.0 | 0.00 | 0.03 | 0.03 | 86 | 1016.4 |
| 20260507031803 | 44 | 355 | 0.0 | 0.0 | 0.00 | 0.03 | 0.03 | 85 | 1016.3 |
| 20260507031303 | 44 | 355 | 0.0 | 0.0 | 0.00 | 0.03 | 0.03 | 84 | 1016.3 |
| 20260507030804 | 44 | 355 | 0.0 | 0.0 | 0.00 | 0.04 | 0.03 | 84 | 1016.4 |
| 20260507030303 | 44 | 355 | 0.0 | 0.0 | 0.00 | 0.04 | 0.03 | 84 | 1016.3 |
| 20260507024803 | 45 | 355 | 0.0 | 0.0 | 0.00 | 0.05 | 0.03 | 82 | 1016.3 |
| 20260507024303 | 45 | 355 | 0.0 | 0.0 | 0.00 | 0.05 | 0.03 | 81 | 1016.4 |
| 20260507023303 | 46 | 355 | 0.0 | 0.0 | 0.00 | 0.05 | 0.03 | 79 | 1016.3 |
| 20260507021304 | 47 | 355 | 0.0 | 0.0 | 0.00 | 0.06 | 0.03 | 77 | 1015.9 |
| 20260507020803 | 48 | 355 | 0.0 | 0.0 | 0.00 | 0.06 | 0.03 | 76 | 1015.9 |
| 20260507020303 | 49 | 355 | 0.0 | 0.0 | 0.00 | 0.06 | 0.03 | 76 | 1015.8 |
| 20260507014803 | 50 | 355 | 0.0 | 0.0 | 0.00 | 0.07 | 0.03 | 72 | 1015.6 |
| 20260507014303 | 50 | 355 | 0.0 | 0.0 | 0.00 | 0.07 | 0.03 | 68 | 1015.6 |
| 20260507013803 | 50 | 355 | 0.0 | 0.0 | 0.00 | 0.08 | 0.03 | 69 | 1015.5 |
| 20260507013303 | 51 | 355 | 0.0 | 0.0 | 0.00 | 0.09 | 0.03 | 67 | 1015.5 |
| 20260507011303 | 52 | 355 | 0.0 | 0.0 | 0.00 | 0.13 | 0.03 | 63 | 1015.2 |
| 20260507010303 | 52 | 355 | 0.0 | 0.0 | 0.00 | 0.14 | 0.03 | 62 | 1015.2 |
| 20260507004803 | 53 | 355 | 0.0 | 0.0 | 0.00 | 0.15 | 0.03 | 60 | 1015.0 |
| 20260507001804 | 56 | 8 | 0.0 | 0.0 | 0.00 | 0.18 | 0.03 | 56 | 1014.9 |
| 20260507001303 | 56 | 298 | 0.0 | 0.0 | 0.00 | 0.19 | 0.03 | 51 | 1014.8 |
| 20260507000803 | 56 | 297 | 0.0 | 0.0 | 0.00 | 0.19 | 0.03 | 49 | 1014.8 |
| 20260507000306 | 56 | 299 | 1.0 | 9.0 | 0.00 | 0.19 | 0.03 | 47 | 1014.8 |
| 20260506234803 | 57 | 345 | 0.0 | 0.0 | 0.00 | 0.22 | 0.03 | 52 | 1014.8 |
| 20260506234303 | 57 | 337 | 0.0 | 0.0 | 0.00 | 0.23 | 0.03 | 47 | 1014.6 |
| 20260506233803 | 58 | 286 | 0.0 | 0.0 | 0.00 | 0.24 | 0.03 | 50 | 1014.6 |
| 20260506233303 | 58 | 291 | 0.0 | 8.0 | 0.00 | 0.25 | 0.03 | 47 | 1014.7 |